Location: *
(43.7000°S, 168.7000°W)
Time: 14:59:43
(UTC+00:00)

H-2A R/B - Pass Details

Date: 07 July 2020
Orbit: 733 x 837 km, 98.2° (Epoch: 04 August)

Event Time Altitude Azimuth Distance (km) Brightness Sun altitude
Rises 17:55:48 0° 33° (NNE) 3,163 6.2 -9.2°
Reaches altitude 10° 17:58:09 10° 39° (NE) 2,245 5.5 -8.8°
Maximum altitude 18:02:48 44° 110° (ESE) 1,024 3.1 -8.0°
Drops below altitude 10° 18:07:32 10° 181° (S) 2,283 4.2 -7.2°
Sets 18:09:56 0° 187° (S) 3,223 4.9 -6.9°
